User: anonymous   Login
Location: Newark
(43.9494°N, 6.8108°E)
Time: 04:26:49
(UTC+00:00)
Language:

Vanguard 2 - Orbit

View from above orbital plane
View from above orbital plane
View from above satellite
View from above satellite

Ground track
Ground track

The orbit data is extracted from the following two-line orbital elements,

1    11U 59001A   19296.80469410  .00000183  00000-0  94769-4 0  9997
2    11  32.8689 227.6292 1466465 349.9009   7.4889 11.85616368588503
Epoch (UTC): 23 October 2019 19:18:45
Eccentricity: 0.1466465
inclination: 32.8689°
perigee height: 554 km
apogee height: 2937 km
right ascension of ascending node: 227.6292°
argument of perigee: 349.9009°
revolutions per day: 11.85616368
mean anomaly at epoch: 7.4889°
orbit number at epoch: 58850

The dashed part of the orbit path shows where the satellite is in the earth's shadow,  

DLR